This is the latest recevied weather packets stored in our database for station/object KD7CIH. If no packets are shown the sender has not sent any weather packets the latest 10 day(s).
| Time | Temp. | Humidity | Pressure | Rain* | Wind** | Luminosity | Snow |
|---|---|---|---|---|---|---|---|
| 1777651765 | 6.11° C | 47% | 1017.7 hPa | 0 mm | - | - | - |
| 1777651458 | 6.11° C | 49% | 1017.7 hPa | 0 mm | - | - | - |
| 1777651154 | 6.11° C | 49% | 1017.7 hPa | 0 mm | - | - | - |
| 1777650847 | 5.56° C | 49% | 1017.7 hPa | 0 mm | - | - | - |
| 1777650675 | 5.56° C | 53% | 1017.7 hPa | 0 mm | - | - | - |
| 1777650246 | 5.56° C | 58% | 1017.7 hPa | 0 mm | - | - | - |
| 1777649945 | 5° C | 57% | 1017.7 hPa | 0 mm | - | - | - |
| 1777649645 | 4.44° C | 58% | 1017.7 hPa | 0 mm | - | - | - |
| 1777649347 | 4.44° C | 61% | 1017.8 hPa | 0 mm | - | - | - |
| 1777649173 | 3.89° C | 62% | 1017.7 hPa | 0 mm | - | - | - |
| 1777648745 | 3.33° C | 62% | 1017.6 hPa | 0 mm | - | - | - |
| 1777648448 | 3.33° C | 63% | 1017.7 hPa | 0 mm | - | - | - |
| 1777648146 | 2.78° C | 64% | 1017.8 hPa | 0 mm | - | - | - |
| 1777647846 | 3.33° C | 63% | 1017.8 hPa | 0 mm | - | - | - |
| 1777647546 | 2.78° C | 64% | 1017.8 hPa | 0 mm | - | - | - |
| 1777647246 | 2.78° C | 67% | 1017.8 hPa | 0 mm | - | - | - |
| 1777646945 | 1.67° C | 70% | 1017.6 hPa | 0 mm | - | - | - |
| 1777646648 | 1.11° C | 71% | 1017.7 hPa | 0 mm | - | - | - |
| 1777646348 | 0.56° C | 72% | 1017.7 hPa | 0 mm | - | - | - |
| 1777645746 | 0° C | 75% | 1017.7 hPa | 0 mm | - | - | - |
| 1777645448 | -0.56° C | 76% | 1017.6 hPa | 0 mm | - | - | - |
| 1777645274 | -0.56° C | 76% | 1017.6 hPa | 0 mm | - | - | - |
| 1777644847 | -1.11° C | 77% | 1017.6 hPa | 0 mm | - | - | - |
| 1777644550 | -1.67° C | 78% | 1017.6 hPa | 0 mm | - | - | - |
| 1777644247 | -1.67° C | 78% | 1017.5 hPa | 0 mm | - | - | - |
* Rain latest hour (hover to see other rain measurements)
** Current wind speed in m/s (hover to see current wind gust speed)